Weather History for KPYX - June, 2013

Change the Weather History Date:

Wednesday, June 12, 2013

  Actual Average Record
Temperature  
Mean Temperature 85 °F -  
Max Temperature 100 °F 85 °F 100 °F (2013)
Min Temperature 70 °F 57 °F 43 °F (1975)
Cooling Degree Days 20    
Growing Degree Days 35 (Base 50)    
Moisture  
Dew Point 51 °F    
Average Humidity 33    
Maximum Humidity 56    
Minimum Humidity 11    
Precipitation  
Precipitation 0.00 in - - ()
Sea Level Pressure  
Sea Level Pressure 29.97 in    
Wind  
Wind Speed 13 mph (SSE)    
Max Wind Speed 21 mph    
Max Gust Speed 26 mph    
Visibility 10 miles    
Events      
Averages and records for this station are not official NWS values.
T = Trace of Precipitation, MM = Missing Value Source: NWS Daily Summary

Daily Weather History Graph

Daily Weather History Graph

Search for Another Location

Airport or City:

Trip Planner

Search our weather history database for the weather conditions in past years. The results will help you decide how hot, cold, wet, or windy it might be!

Date:

Astronomy

Jun. 12, 2013 Rise Set
Actual Time 6:24 AM CDT 9:01 PM CDT
Civil Twilight 5:54 AM CDT 9:31 PM CDT
Nautical Twilight 5:16 AM CDT 10:09 PM CDT
Astronomical Twilight 4:34 AM CDT 10:51 PM CDT
Moon 10:00 AM CDT (6/12) 11:44 PM CDT (6/12)
Length of Visible Light 15h 37m
Length of Day
14h 37m
Waxing Crescent, 14% of the Moon is Illuminated
Jun 12
Waxing Crescent
Jun 16
First Quarter
Jun 23
Full
Jun 29
Last Quarter
Jul 8
New

Hourly Weather History & Observations

Time (CDT) Temp. Heat Index Dew Point Humidity Pressure Visibility Wind Dir Wind Speed Gust Speed Precip Events Conditions
12:15 AM 81.5 °F - 52.9 °F 37% 29.89 in 10.0 mi South 18.4 mph 24.2 mph N/A   Clear
12:35 AM 81.1 °F - 52.7 °F 37% 29.89 in 10.0 mi South 20.7 mph 26.5 mph N/A   Clear
12:55 AM 80.4 °F - 52.7 °F 38% 29.89 in 10.0 mi South 17.3 mph 24.2 mph N/A   Clear
1:15 AM 79.2 °F - 52.7 °F 40% 29.89 in 10.0 mi South 15.0 mph - N/A   Clear
1:35 AM 79.2 °F - 52.7 °F 40% 29.89 in 10.0 mi South 16.1 mph 23.0 mph N/A   Clear
1:55 AM 78.6 °F - 52.9 °F 41% 29.90 in 10.0 mi SSW 16.1 mph - N/A   Clear
2:15 AM 77.5 °F - 53.2 °F 43% 29.90 in 10.0 mi SSW 15.0 mph - N/A   Clear
2:35 AM 77.0 °F - 53.1 °F 43% 29.91 in 10.0 mi SSW 15.0 mph - N/A   Clear
2:55 AM 76.1 °F - 52.5 °F 44% 29.91 in 10.0 mi SSW 13.8 mph - N/A   Clear
3:15 AM 75.2 °F - 52.3 °F 45% 29.90 in 10.0 mi SSW 15.0 mph - N/A   Clear
3:35 AM 74.7 °F - 52.3 °F 46% 29.91 in 10.0 mi SSW 13.8 mph - N/A   Clear
3:55 AM 74.5 °F - 52.2 °F 46% 29.90 in 10.0 mi SSW 12.7 mph - N/A   Clear
4:15 AM 75.2 °F - 52.2 °F 44% 29.91 in 10.0 mi SSW 12.7 mph - N/A   Clear
4:35 AM 74.5 °F - 52.7 °F 46% 29.91 in 10.0 mi SSW 11.5 mph - N/A   Clear
4:55 AM 73.4 °F - 53.1 °F 49% 29.92 in 10.0 mi SW 11.5 mph - N/A   Clear
5:15 AM 72.5 °F - 53.2 °F 51% 29.92 in 10.0 mi SSW 10.4 mph - N/A   Clear
5:35 AM 71.1 °F - 53.6 °F 54% 29.92 in 10.0 mi SSW 11.5 mph - N/A   Clear
5:55 AM 70.9 °F - 53.8 °F 55% 29.92 in 10.0 mi SSW 11.5 mph - N/A   Clear
6:15 AM 70.7 °F - 54.1 °F 56% 29.93 in 10.0 mi SSW 12.7 mph - N/A   Clear
6:35 AM 71.6 °F - 54.3 °F 54% 29.93 in 10.0 mi SW 13.8 mph - N/A   Clear
6:55 AM 72.5 °F - 54.5 °F 53% 29.94 in 10.0 mi SSW 15.0 mph - N/A   Clear
7:15 AM 73.6 °F - 54.5 °F 51% 29.95 in 10.0 mi SW 16.1 mph 20.7 mph N/A   Clear
7:35 AM 75.4 °F - 54.5 °F 48% 29.96 in 10.0 mi SW 15.0 mph - N/A   Clear
7:55 AM 77.5 °F - 53.6 °F 43% 29.98 in 10.0 mi SW 16.1 mph 21.9 mph N/A   Clear
8:15 AM 79.0 °F - 53.6 °F 41% 29.98 in 10.0 mi WSW 13.8 mph - N/A   Clear
8:35 AM 80.6 °F - 52.7 °F 38% 29.99 in 10.0 mi WSW 16.1 mph - N/A   Clear
8:55 AM 81.9 °F - 52.0 °F 35% 29.99 in 10.0 mi West 13.8 mph - N/A   Clear
9:15 AM 83.3 °F - 51.4 °F 33% 29.99 in 10.0 mi West 11.5 mph - N/A   Clear
9:35 AM 84.0 °F 82.5 °F 53.1 °F 34% 29.99 in 10.0 mi WNW 9.2 mph - N/A   Clear
9:55 AM 84.2 °F 82.6 °F 53.1 °F 34% 30.00 in 10.0 mi WSW 6.9 mph - N/A   Clear
10:15 AM 85.3 °F 83.5 °F 53.1 °F 33% 30.00 in 10.0 mi WSW 8.1 mph - N/A   Clear
10:35 AM 86.2 °F 84.4 °F 54.3 °F 33% 30.00 in 10.0 mi West 5.8 mph - N/A   Clear
10:55 AM 87.3 °F 85.5 °F 55.0 °F 33% 30.00 in 10.0 mi WNW 6.9 mph - N/A   Clear
11:15 AM 88.7 °F 86.9 °F 54.9 °F 32% 30.01 in 10.0 mi WNW 4.6 mph - N/A   Clear
11:35 AM 89.8 °F 87.7 °F 54.5 °F 30% 30.01 in 10.0 mi Calm Calm - N/A   Clear
11:55 AM 91.6 °F 89.6 °F 54.7 °F 29% 30.01 in 10.0 mi Calm Calm - N/A   Clear
12:15 PM 92.8 °F 90.6 °F 54.1 °F 27% 30.01 in 10.0 mi Calm Calm - N/A   Clear
12:35 PM 95.2 °F - 51.6 °F 23% 30.01 in 10.0 mi East 5.8 mph - N/A   Clear
12:55 PM 95.5 °F - 52.3 °F 23% 30.01 in 10.0 mi East 5.8 mph - N/A   Clear
1:15 PM 96.1 °F - 51.1 °F 22% 30.01 in 10.0 mi East 6.9 mph - N/A   Clear
1:35 PM 96.8 °F - 50.0 °F 20% 30.01 in 10.0 mi ENE 9.2 mph - N/A   Clear
1:55 PM 97.2 °F - 52.2 °F 22% 30.00 in 10.0 mi SE 5.8 mph - N/A   Clear
2:15 PM 98.4 °F - 50.2 °F 20% 30.00 in 10.0 mi ESE 9.2 mph - N/A   Clear
2:35 PM 99.0 °F - 44.6 °F 16% 30.00 in 10.0 mi East 13.8 mph - N/A   Clear
2:55 PM 98.8 °F - 45.7 °F 16% 30.00 in 10.0 mi East 15.0 mph - N/A   Clear
3:15 PM 99.5 °F - 43.2 °F 15% 29.99 in 10.0 mi East 11.5 mph 16.1 mph N/A   Clear
3:35 PM 99.1 °F - 45.1 °F 16% 29.99 in 10.0 mi East 10.4 mph - N/A   Clear
3:55 PM 100.0 °F - 39.9 °F 13% 29.99 in 10.0 mi ESE 13.8 mph 19.6 mph N/A   Clear
4:15 PM 100.0 °F - 36.5 °F 11% 29.99 in 10.0 mi ESE 10.4 mph 16.1 mph N/A   Clear
4:35 PM 100.0 °F - 40.3 °F 13% 29.98 in 10.0 mi East 13.8 mph 20.7 mph N/A   Clear
4:55 PM 100.2 °F - 43.2 °F 14% 29.98 in 10.0 mi East 9.2 mph - N/A   Clear
5:15 PM 99.9 °F - 39.0 °F 12% 29.98 in 10.0 mi East 10.4 mph 16.1 mph N/A   Clear
5:35 PM 99.7 °F - 41.0 °F 13% 29.98 in 10.0 mi East 10.4 mph 16.1 mph N/A   Clear
5:55 PM 99.9 °F - 44.6 °F 15% 29.97 in 10.0 mi East 12.7 mph 16.1 mph N/A   Clear
6:15 PM 99.1 °F - 43.7 °F 15% 29.97 in 10.0 mi ESE 8.1 mph - N/A   Clear
6:35 PM 98.8 °F - 45.1 °F 16% 29.96 in 10.0 mi East 6.9 mph 10.4 mph N/A   Clear
6:55 PM 97.7 °F - 45.9 °F 17% 29.97 in 10.0 mi East 9.2 mph - N/A   Clear
7:15 PM 97.7 °F - 48.4 °F 19% 29.97 in 10.0 mi SE 10.4 mph - N/A   Clear
7:35 PM 96.6 °F - 45.7 °F 17% 29.97 in 10.0 mi East 9.2 mph - N/A   Clear
7:55 PM 94.6 °F - 51.6 °F 23% 29.98 in 10.0 mi SE 9.2 mph - N/A   Clear
8:15 PM 92.8 °F - 51.3 °F 24% 29.98 in 10.0 mi SE 9.2 mph - N/A   Clear
8:35 PM 89.4 °F - 52.7 °F 28% 29.98 in 10.0 mi SE 8.1 mph - N/A   Clear
8:55 PM 87.1 °F 85.1 °F 53.8 °F 32% 29.98 in 10.0 mi SE 6.9 mph - N/A   Clear
9:15 PM 83.8 °F 82.8 °F 55.6 °F 38% 29.98 in 10.0 mi SE 8.1 mph - N/A   Clear
9:35 PM 82.0 °F 81.6 °F 56.3 °F 41% 29.99 in 10.0 mi SE 8.1 mph - N/A   Clear
9:55 PM 82.0 °F 81.6 °F 56.3 °F 41% 30.00 in 10.0 mi SE 9.2 mph - N/A   Clear
10:15 PM 81.9 °F 81.6 °F 56.8 °F 42% 30.01 in 10.0 mi SSE 10.4 mph - N/A   Clear
10:35 PM 81.1 °F 81.2 °F 57.2 °F 44% 30.02 in 10.0 mi SSE 10.4 mph - N/A   Clear
10:55 PM 80.6 °F 80.8 °F 57.4 °F 45% 30.02 in 10.0 mi SSE 9.2 mph - N/A   Clear
11:15 PM 78.6 °F - 57.7 °F 49% 30.03 in 10.0 mi SSE 9.2 mph - N/A   Clear
11:35 PM 78.1 °F - 57.7 °F 49% 30.03 in 10.0 mi SSE 9.2 mph - N/A   Clear
11:55 PM 77.2 °F - 57.9 °F 51% 30.03 in 10.0 mi South 6.9 mph - N/A   Clear